RYR7VZ LGKR-EDDK

Flight info

Callsign RYR7VZ
Flight time N/A
Altitude 38000
Route OLGAT DCT CRAYE DCT GISAM DCT ABISO DCT TATZI DCT ETASA DCT ASKIK DCT DILUG T840 GULKO GULKO1F
Aircraft B38M/M-SDE1FGHILORVWXY/HB1

Departure

Time N/A
Airport Corfu Ioannis Kapodistrias International Airport (LGKR)

Arrival

Time 2026-04-22 20:31
Airport Cologne Bonn Airport (EDDK)
Time Latitude Longitude Altitude Speed Heading
2026-04-22 19:34 48.15698 11.18141 38295 ft 392 kts 311°
2026-04-22 19:35 48.19096 11.11635 38295 ft 398 kts 311°
2026-04-22 19:35 48.21947 11.06167 38293 ft 403 kts 311°
2026-04-22 19:36 48.26026 10.98321 38297 ft 411 kts 311°
2026-04-22 19:36 48.29551 10.91524 38292 ft 418 kts 311°
2026-04-22 19:37 48.33145 10.84574 38291 ft 424 kts 310°
2026-04-22 19:37 48.36794 10.77500 38281 ft 431 kts 310°
2026-04-22 19:38 48.40488 10.70321 38298 ft 438 kts 310°
2026-04-22 19:38 48.44220 10.63048 38301 ft 439 kts 310°
2026-04-22 19:39 48.47946 10.55766 38294 ft 439 kts 310°
2026-04-22 19:39 48.51669 10.48471 38309 ft 439 kts 310°
2026-04-22 19:40 48.55385 10.41171 38293 ft 438 kts 310°
2026-04-22 19:40 48.59061 10.33930 38303 ft 437 kts 310°
2026-04-22 19:41 48.62756 10.26630 38306 ft 437 kts 310°
2026-04-22 19:41 48.66461 10.19292 38324 ft 441 kts 310°
2026-04-22 19:42 48.70176 10.11913 38299 ft 440 kts 310°
2026-04-22 19:42 48.73891 10.04513 38296 ft 440 kts 310°
2026-04-22 19:43 48.79401 9.93503 38295 ft 438 kts 310°
2026-04-22 19:43 48.83079 9.86128 38291 ft 438 kts 310°
2026-04-22 19:44 48.86752 9.78741 38297 ft 438 kts 310°
2026-04-22 19:44 48.90426 9.71335 38288 ft 439 kts 310°
2026-04-22 19:45 48.94109 9.63886 38285 ft 441 kts 309°
2026-04-22 19:45 48.97790 9.56423 38288 ft 440 kts 309°
2026-04-22 19:46 49.01457 9.48967 38284 ft 440 kts 309°
2026-04-22 19:46 49.05122 9.41498 38291 ft 440 kts 309°
2026-04-22 19:47 49.08786 9.34011 38286 ft 440 kts 309°
2026-04-22 19:47 49.12441 9.26523 38283 ft 439 kts 309°
2026-04-22 19:48 49.16064 9.19082 38291 ft 439 kts 309°
2026-04-22 19:48 49.20289 9.12510 38288 ft 430 kts 332°
2026-04-22 19:49 49.25699 9.08586 38283 ft 431 kts 337°
2026-04-22 19:49 49.31177 9.04799 38289 ft 432 kts 338°
2026-04-22 19:50 49.36661 9.01044 38298 ft 432 kts 338°
2026-04-22 19:50 49.42149 8.97285 38123 ft 432 kts 338°
2026-04-22 19:51 49.44894 8.95400 37863 ft 431 kts 338°
2026-04-22 19:51 49.47615 8.93532 37252 ft 427 kts 338°
2026-04-22 19:51 49.50328 8.91664 36348 ft 428 kts 338°
2026-04-22 19:51 49.53055 8.89782 35413 ft 431 kts 338°
2026-04-22 19:52 49.55804 8.87883 34486 ft 434 kts 338°
2026-04-22 19:52 49.58552 8.85983 33695 ft 430 kts 339°
2026-04-22 19:52 49.61275 8.84101 32966 ft 425 kts 339°
2026-04-22 19:52 49.63933 8.82261 32299 ft 423 kts 339°
2026-04-22 19:53 49.66608 8.80408 31733 ft 421 kts 339°
2026-04-22 19:53 49.69273 8.78560 31246 ft 417 kts 339°
2026-04-22 19:53 49.71018 8.77348 30928 ft 414 kts 339°
2026-04-22 19:53 49.74519 8.74914 30206 ft 412 kts 339°
2026-04-22 19:54 49.77133 8.73094 29609 ft 409 kts 339°
2026-04-22 19:54 49.79713 8.71295 29093 ft 405 kts 339°
2026-04-22 19:54 49.82274 8.69509 28611 ft 402 kts 339°
2026-04-22 19:54 49.84819 8.67730 28089 ft 398 kts 339°
2026-04-22 19:55 49.87342 8.65965 27604 ft 395 kts 339°
2026-04-22 19:55 49.89835 8.64220 27128 ft 392 kts 339°
2026-04-22 19:55 49.91478 8.63068 26817 ft 390 kts 339°
2026-04-22 19:55 49.93948 8.61334 26380 ft 388 kts 339°
2026-04-22 19:56 49.96401 8.59611 25896 ft 386 kts 339°
2026-04-22 19:56 49.98836 8.57899 25448 ft 384 kts 339°
2026-04-22 19:56 50.01259 8.56194 25002 ft 382 kts 339°
2026-04-22 19:56 50.03675 8.54491 24557 ft 380 kts 339°
2026-04-22 19:57 50.06078 8.52823 24316 ft 376 kts 340°
2026-04-22 19:57 50.08486 8.51170 24316 ft 379 kts 340°
2026-04-22 19:57 50.10901 8.49507 24314 ft 379 kts 340°
2026-04-22 19:57 50.13310 8.47845 24279 ft 379 kts 340°
2026-04-22 19:58 50.15731 8.46174 23571 ft 384 kts 340°
2026-04-22 19:58 50.18199 8.44468 22683 ft 391 kts 340°
2026-04-22 19:58 50.20677 8.42752 21839 ft 396 kts 339°
2026-04-22 19:58 50.23212 8.40996 21011 ft 391 kts 339°
2026-04-22 19:59 50.25650 8.39304 20289 ft 383 kts 339°
2026-04-22 20:00 50.39395 8.29735 18341 ft 342 kts 339°
2026-04-22 20:00 50.41538 8.28103 18339 ft 342 kts 332°
2026-04-22 20:01 50.43504 8.26051 17767 ft 340 kts 330°
2026-04-22 20:01 50.45489 8.24021 17165 ft 338 kts 330°
2026-04-22 20:01 50.47461 8.22033 16616 ft 336 kts 331°
2026-04-22 20:01 50.49420 8.20074 16079 ft 333 kts 331°
2026-04-22 20:02 50.51368 8.18136 15716 ft 330 kts 331°
2026-04-22 20:02 50.53307 8.16210 15353 ft 328 kts 331°
2026-04-22 20:02 50.55225 8.14306 15007 ft 325 kts 331°
2026-04-22 20:02 50.57103 8.12440 14656 ft 323 kts 331°
2026-04-22 20:03 50.58996 8.10559 14304 ft 320 kts 331°
2026-04-22 20:03 50.60872 8.08676 13905 ft 318 kts 330°
2026-04-22 20:03 50.62729 8.06791 13527 ft 316 kts 330°
2026-04-22 20:03 50.64570 8.04923 13198 ft 312 kts 330°
2026-04-22 20:04 50.66385 8.03081 12862 ft 309 kts 330°
2026-04-22 20:04 50.68186 8.01253 12526 ft 306 kts 330°
2026-04-22 20:04 50.69965 7.99444 12187 ft 304 kts 330°
2026-04-22 20:04 50.71760 7.97618 11862 ft 309 kts 330°
2026-04-22 20:05 50.73578 7.95768 11510 ft 312 kts 330°
2026-04-22 20:05 50.75312 7.93710 11370 ft 313 kts 315°
2026-04-22 20:05 50.76576 7.90925 11361 ft 319 kts 306°
2026-04-22 20:05 50.77814 7.87957 11356 ft 319 kts 306°
2026-04-22 20:06 50.79015 7.85045 11353 ft 319 kts 306°
2026-04-22 20:06 50.80219 7.82102 11344 ft 317 kts 305°
2026-04-22 20:06 50.81388 7.79234 11354 ft 303 kts 306°
2026-04-22 20:06 50.82514 7.76463 11349 ft 297 kts 306°
2026-04-22 20:07 50.83627 7.73719 11351 ft 297 kts 305°
2026-04-22 20:07 50.84743 7.70964 11349 ft 297 kts 305°
2026-04-22 20:07 50.85855 7.68214 11347 ft 297 kts 305°
2026-04-22 20:07 50.86965 7.65465 11347 ft 297 kts 305°
2026-04-22 20:08 50.88075 7.62715 11347 ft 296 kts 305°
2026-04-22 20:08 50.89187 7.59957 11348 ft 296 kts 305°
2026-04-22 20:08 50.90296 7.57203 11347 ft 296 kts 305°
2026-04-22 20:08 50.91405 7.54446 11341 ft 297 kts 305°
2026-04-22 20:09 50.92510 7.51698 11280 ft 294 kts 306°
2026-04-22 20:09 50.93611 7.48954 10903 ft 295 kts 305°
2026-04-22 20:09 50.94708 7.46219 10587 ft 294 kts 305°
2026-04-22 20:09 50.95800 7.43492 10273 ft 292 kts 305°
2026-04-22 20:10 50.96876 7.40802 9905 ft 291 kts 305°
2026-04-22 20:10 50.97955 7.38104 9574 ft 289 kts 305°
2026-04-22 20:10 50.99031 7.35408 9224 ft 288 kts 304°
2026-04-22 20:10 51.00101 7.32728 8897 ft 286 kts 304°
2026-04-22 20:11 51.01137 7.30127 8563 ft 285 kts 304°
2026-04-22 20:11 51.02193 7.27475 8236 ft 284 kts 304°
2026-04-22 20:11 51.03245 7.24830 7925 ft 282 kts 304°
2026-04-22 20:11 51.04288 7.22188 7606 ft 281 kts 302°
2026-04-22 20:12 51.04914 7.19262 7308 ft 282 kts 278°
2026-04-22 20:12 51.05044 7.16152 6912 ft 283 kts 273°
2026-04-22 20:12 51.05118 7.13041 6562 ft 279 kts 273°
2026-04-22 20:12 51.05194 7.09952 6118 ft 278 kts 273°
2026-04-22 20:13 51.05273 7.06914 5749 ft 271 kts 273°
2026-04-22 20:13 51.05356 7.03979 5461 ft 260 kts 273°
2026-04-22 20:13 51.05439 7.01167 5197 ft 250 kts 273°
2026-04-22 20:13 51.05511 6.98460 4888 ft 242 kts 269°
2026-04-22 20:14 51.05127 6.95894 4414 ft 239 kts 240°
2026-04-22 20:14 51.04048 6.93976 4061 ft 234 kts 210°
2026-04-22 20:14 51.02560 6.93170 3899 ft 220 kts 181°
2026-04-22 20:14 51.01127 6.93623 3672 ft 207 kts 150°
2026-04-22 20:15 51.00082 6.95077 3443 ft 196 kts 128°
2026-04-22 20:15 50.99176 6.96662 3190 ft 191 kts 133°
2026-04-22 20:15 50.98239 6.98080 2952 ft 186 kts 135°
2026-04-22 20:15 50.97300 6.99443 2720 ft 180 kts 135°
2026-04-22 20:16 50.96402 7.00750 2500 ft 167 kts 134°
2026-04-22 20:16 50.95597 7.01918 2310 ft 146 kts 133°
2026-04-22 20:16 50.94862 7.02990 2099 ft 142 kts 133°
2026-04-22 20:16 50.94135 7.04052 1907 ft 142 kts 132°
2026-04-22 20:17 50.93410 7.05109 1707 ft 141 kts 132°
2026-04-22 20:17 50.92686 7.06167 1503 ft 142 kts 132°
2026-04-22 20:17 50.91971 7.07224 1309 ft 142 kts 132°
2026-04-22 20:17 50.91232 7.08308 1106 ft 148 kts 135°
2026-04-22 20:18 50.90456 7.09406 901 ft 150 kts 135°
2026-04-22 20:18 50.89683 7.10513 702 ft 150 kts 135°
2026-04-22 20:18 50.88921 7.11654 506 ft 151 kts 135°
2026-04-22 20:18 50.88146 7.12762 318 ft 151 kts 138°
2026-04-22 20:19 50.87351 7.13915 634 ft 161 kts 135°
2026-04-22 20:19 50.86495 7.15117 1198 ft 159 kts 136°
2026-04-22 20:19 50.85653 7.16276 1708 ft 159 kts 136°
2026-04-22 20:19 50.84804 7.17506 2216 ft 176 kts 132°
2026-04-22 20:20 50.83870 7.18939 2862 ft 199 kts 133°
2026-04-22 20:20 50.82817 7.20526 3302 ft 215 kts 135°
2026-04-22 20:20 50.81710 7.22172 3542 ft 221 kts 135°
2026-04-22 20:20 50.80594 7.23818 3798 ft 224 kts 136°
2026-04-22 20:21 50.79508 7.25624 3875 ft 233 kts 121°
2026-04-22 20:21 50.79044 7.28064 3898 ft 237 kts 90°
2026-04-22 20:21 50.79452 7.30582 3949 ft 241 kts 61°
2026-04-22 20:21 50.80431 7.32768 3969 ft 246 kts 49°
2026-04-22 20:22 50.81841 7.34274 3968 ft 247 kts 19°
2026-04-22 20:22 50.83547 7.34453 3982 ft 251 kts 349°
2026-04-22 20:22 50.85135 7.33298 3994 ft 255 kts 326°
2026-04-22 20:22 50.86549 7.31593 3996 ft 257 kts 323°
2026-04-22 20:23 50.87961 7.29846 3993 ft 257 kts 323°
2026-04-22 20:23 50.89369 7.28101 3994 ft 257 kts 323°
2026-04-22 20:23 50.90782 7.26351 3825 ft 258 kts 323°
2026-04-22 20:23 50.92197 7.24602 3579 ft 258 kts 323°
2026-04-22 20:24 50.93556 7.22750 3308 ft 258 kts 315°
2026-04-22 20:24 50.94774 7.20657 3058 ft 258 kts 313°
2026-04-22 20:24 50.95825 7.18403 3014 ft 249 kts 304°
2026-04-22 20:24 50.96733 7.16129 3006 ft 240 kts 303°
2026-04-22 20:25 50.97607 7.13921 3016 ft 238 kts 303°
2026-04-22 20:25 50.98489 7.11683 3042 ft 239 kts 303°
2026-04-22 20:25 50.99347 7.09500 3026 ft 224 kts 303°
2026-04-22 20:25 51.00159 7.07435 3003 ft 218 kts 303°
2026-04-22 20:26 51.00965 7.05396 2998 ft 217 kts 303°
2026-04-22 20:26 51.01713 7.03324 2986 ft 213 kts 296°
2026-04-22 20:26 51.01951 7.01133 2957 ft 195 kts 258°
2026-04-22 20:26 51.01368 6.99365 2931 ft 181 kts 220°
2026-04-22 20:27 51.00359 6.98173 2995 ft 180 kts 200°
2026-04-22 20:27 50.99168 6.97947 2973 ft 171 kts 163°
2026-04-22 20:27 50.98070 6.98647 2894 ft 171 kts 148°
2026-04-22 20:27 50.97098 6.99716 2672 ft 169 kts 137°
2026-04-22 20:28 50.96233 7.00972 2453 ft 167 kts 133°
2026-04-22 20:28 50.95412 7.02186 2231 ft 158 kts 133°
2026-04-22 20:28 50.94620 7.03344 2040 ft 147 kts 133°
2026-04-22 20:28 50.93893 7.04405 1858 ft 141 kts 133°
2026-04-22 20:29 50.93179 7.05453 1608 ft 139 kts 132°
2026-04-22 20:29 50.92472 7.06492 1402 ft 138 kts 132°
2026-04-22 20:29 50.91759 7.07535 1222 ft 142 kts 133°
2026-04-22 20:29 50.91006 7.08613 1056 ft 147 kts 135°
2026-04-22 20:30 50.90247 7.09706 860 ft 148 kts 135°
2026-04-22 20:30 50.89483 7.10830 658 ft 149 kts 135°
2026-04-22 20:30 50.88713 7.11934 465 ft 147 kts 136°
2026-04-22 20:30 50.87968 7.13024 264 ft 145 kts 137°
2026-04-22 20:31 50.87332 7.13945 244 ft 93 kts 137°
2026-04-22 20:31 50.87000 7.14427 258 ft 44 kts 137°
2026-04-22 20:31 50.86885 7.14516 262 ft 13 kts 209°
2026-04-22 20:31 50.86875 7.14420 262 ft 9 kts 282°
2026-04-22 20:32 50.86891 7.14291 259 ft 15 kts 279°
2026-04-22 20:32 50.86917 7.14115 257 ft 16 kts 291°
2026-04-22 20:32 50.87000 7.13967 250 ft 22 kts 317°
2026-04-22 20:32 50.87128 7.13782 243 ft 27 kts 317°
2026-04-22 20:33 50.87268 7.13579 238 ft 27 kts 317°
2026-04-22 20:33 50.87407 7.13378 235 ft 28 kts 317°
2026-04-22 20:33 50.87547 7.13174 235 ft 28 kts 317°
2026-04-22 20:33 50.87682 7.12979 237 ft 22 kts 317°
2026-04-22 20:34 50.87771 7.12850 235 ft 13 kts 314°
2026-04-22 20:34 50.87786 7.12722 235 ft 12 kts 276°
2026-04-22 20:34 50.87841 7.12619 237 ft 13 kts 343°
2026-04-22 20:34 50.87929 7.12595 236 ft 13 kts 329°
2026-04-22 20:35 50.87991 7.12508 235 ft 12 kts 317°
2026-04-22 20:35 50.88053 7.12414 235 ft 9 kts 304°
2026-04-22 20:35 50.88033 7.12349 235 ft 8 kts 218°
2026-04-22 20:35 50.87985 7.12302 236 ft 7 kts 197°
2026-04-22 20:36 50.87944 7.12303 236 ft 2 kts 173°
2026-04-22 20:36 50.87936 7.12304 235 ft 0 kts 174°